Flag for Estonia Weather past 2 weeks in Narva, Estonia

Now
40 °F

Fog.


Feels Like: 36 °F
Forecast: 36 / 42 °F
Wind: 5 mph from South

Location: Narva

Current Time: Mar 29, 2015 at 12:28:23 PM

Latest Report: Mar 29, 2015 at 11:00 AM


Visibility: 5 mi

Pressure: 29.82 "Hg

Humidity: 88%

Dew point: 36 °F

Location of NarvaLocation

Historic Weather in Narva — Graph

°F

Narva temperature yesterday

Maximum temperature yesterday: 44 °F (at 2:00 PM)
Minimum temperature yesterday: 36 °F (at 6:00 AM)
Average temperature yesterday: 41 °F

Past Weeks' High & Low Weather Summary

 TemperatureHumidityPressure
High58 °F (Mar 18, 4:00 PM)99% (Mar 29, 5:00 AM)31.08 "Hg (Mar 29, 5:00 AM)
Low21 °F (Mar 22, 6:00 AM)16% (Mar 18, 4:00 PM)28.05 "Hg (Mar 17, 12:00 PM)
Average36 °F60%30.27 "Hg
* Reported Mar 14 10:00 AM — Mar 29 11:00 AM, Narva, Weather by CustomWeather, © 2015

Note: Actual official high and low records may vary slightly from our data, if they occured in-between our weather recording intervals... More about our weather records

Advertising

Narva weather history for previous 24 hours

 ConditionsComfort  
Time TempWeatherWind HumidityBarometerVisibility
11:00 AM
Sun, Mar 29
40 °FFog.5 mph88%29.82 "Hg5 mi
10:00 AM39 °FLow clouds.5 mph93%29.84 "Hg4 mi
9:00 AM39 °FLow clouds.5 mph95%29.85 "Hg1 mi
8:00 AM37 °FLight rain. Low clouds.1 mph99%29.86 "Hg3 mi
7:00 AM36 °FLight rain. Low clouds.1 mph99%29.87 "Hg1 mi
5:00 AM35 °FLight rain. Low clouds.1 mph99%29.89 "Hg3 mi
4:00 AM35 °FRain. Low clouds.2 mph98%29.90 "Hg6 mi
2:00 AM36 °FRain. Low clouds.3 mph98%29.90 "Hg4 mi
1:00 AM40 °FLight rain. Low clouds.3 mph96%29.91 "Hg2 mi
12:00 AM40 °FLight rain. Low clouds.3 mph97%29.91 "Hg2 mi
10:00 PM
Sat, Mar 28
40 °FLight rain. Low clouds.5 mph97%29.94 "Hg2 mi
9:00 PM40 °FLight rain. Overcast.3 mph96%29.95 "Hg2 mi
8:00 PM39 °FLight rain. Overcast.2 mph93%29.96 "Hg2 mi
7:00 PM40 °FLight rain. Overcast.2 mph89%29.96 "Hg4 mi
6:00 PM41 °FRain showers. Overcast.3 mph81%29.95 "Hg6 mi
5:00 PM43 °FDrizzle. Overcast.6 mph73%29.96 "Hg7 mi
4:00 PM43 °FOvercast.7 mph69%29.95 "Hg9 mi
3:00 PM44 °FOvercast.7 mph67%29.96 "Hg10 mi
2:00 PM44 °FOvercast.8 mph69%29.96 "Hg9 mi
1:00 PM43 °FOvercast.8 mph75%29.97 "Hg9 mi
12:00 PM43 °FOvercast.9 mph66%29.97 "Hg11 mi
Weather by CustomWeather, © 2015

See weather overviewHow to use our weather pages